Theta_e
317 319 322 322 324 327 328 330 327 324 321 315 316 317 316 319 319 319 318 319 321 320 319 319 319 322 323 322 322 326 328 328 331 332 336 342 341 342 342 342 343 342 343 340 337 336 337 338 339 340 340 340 340 339 339 339 339 338 337 337 335 334 335 336 336 336 334 330 327 326 325 324 323 319 317 320 326 330 332 332 332 332 331 331 332 333 333 334 335 334 331 326 318 319 320 322 326
317 321 325 325 324 327 331 330 324 320 316 313 315 317 316 319 320 319 320 322 321 320 320 320 320 322 321 321 319 326 330 329 332 335 337 339 340 341 341 342 342 342 342 340 339 338 337 337 336 339 339 339 340 339 339 339 339 339 338 337 337 338 337 337 336 336 334 329 327 326 326 324 323 322 319 316 321 328 332 332 331 331 331 332 333 333 333 334 335 333 331 324 318 322 323 325 327
318 321 325 326 326 327 331 327 321 316 313 312 313 316 318 319 321 322 322 322 321 320 321 320 321 321 320 323 319 325 332 330 331 333 335 339 340 339 340 341 342 342 341 341 341 340 337 336 336 338 339 339 340 339 339 339 339 340 339 338 338 338 337 337 337 337 333 327 327 327 326 325 322 322 320 316 320 329 332 332 331 331 331 332 333 333 333 334 334 332 330 321 318 325 324 324 325
318 321 325 326 330 329 329 327 323 316 312 312 312 316 320 320 322 321 321 321 321 320 321 321 321 320 321 323 319 325 332 330 331 333 335 338 339 339 339 340 342 342 341 341 342 341 338 336 336 337 339 339 339 339 339 339 339 339 339 338 338 338 337 337 336 336 332 327 327 327 327 325 320 319 319 317 321 329 332 331 331 331 332 332 332 333 333 334 333 331 327 317 318 323 322 322 323
319 323 324 325 332 330 326 325 322 317 314 314 313 317 320 320 322 320 320 320 320 321 320 321 321 319 320 321 322 326 330 332 333 335 336 337 338 338 339 340 341 342 342 341 342 342 338 336 335 336 338 338 339 338 339 339 339 339 339 338 338 338 337 337 336 336 333 329 328 328 327 324 318 315 317 318 320 328 332 331 330 332 333 333 333 333 333 333 332 330 324 316 318 320 320 321 324
322 325 325 325 330 326 324 321 317 316 316 319 315 317 319 319 321 320 320 319 319 320 319 320 319 319 321 322 326 329 329 332 335 337 338 337 337 336 338 340 341 342 342 341 342 342 338 336 334 335 337 337 337 337 338 338 339 339 338 338 337 338 337 336 336 336 333 330 329 329 328 324 318 314 313 315 319 326 330 331 330 331 332 333 334 333 334 332 331 327 321 318 320 319 320 322 324
323 326 327 327 327 325 325 320 316 317 317 320 317 316 319 319 320 319 319 318 318 318 318 319 318 320 322 321 327 329 330 332 336 338 337 336 336 336 338 340 341 342 342 341 343 342 337 336 334 333 336 336 336 336 337 337 338 338 338 338 337 337 336 336 336 336 333 330 330 330 329 325 320 315 311 312 318 326 330 330 330 330 331 332 332 332 331 330 328 323 319 321 322 321 321 322 324
322 327 329 327 328 325 324 321 318 320 317 318 319 318 319 319 320 318 319 318 318 318 317 318 318 320 319 320 327 328 331 334 335 336 336 336 336 336 337 340 341 341 342 342 343 341 337 337 334 332 334 335 335 334 335 336 338 338 338 338 337 337 336 336 336 335 333 331 331 330 329 325 321 317 311 310 315 324 329 330 329 328 329 330 330 329 328 327 325 321 320 322 323 322 321 323 324
322 327 327 325 327 323 320 320 318 319 318 318 318 319 319 319 319 318 319 318 317 318 318 318 318 319 317 321 326 327 330 333 334 335 336 334 333 335 337 339 340 341 342 342 342 340 337 337 335 333 333 334 334 333 334 336 336 337 337 337 337 337 336 336 335 335 333 331 331 331 329 326 321 317 313 310 314 322 327 329 328 328 328 327 327 326 326 325 323 322 323 323 323 322 321 323 324
324 325 326 325 324 319 316 318 319 319 318 318 317 318 319 318 319 319 318 317 317 318 318 318 318 319 317 321 325 326 328 330 333 335 335 334 332 335 338 338 340 341 341 342 342 341 337 337 336 335 334 334 334 333 333 335 336 336 336 337 337 336 336 335 335 335 334 332 331 331 329 326 322 318 315 313 317 322 324 326 326 327 327 326 326 325 325 324 324 323 322 323 322 320 321 323 323
326 323 324 326 321 315 314 317 320 320 318 318 318 318 318 318 318 318 318 316 316 318 318 318 318 318 317 321 323 325 328 330 332 335 336 336 335 336 338 338 340 341 341 342 342 341 337 337 337 337 335 334 334 333 333 334 335 335 335 335 336 335 335 335 335 335 334 333 331 331 329 326 323 319 317 314 317 322 323 323 324 325 325 325 324 324 324 324 323 323 322 321 320 319 321 322 322
328 326 325 322 320 318 317 319 319 319 319 317 318 318 318 318 317 317 318 316 315 317 317 317 318 318 316 321 323 323 327 331 332 334 334 334 336 336 337 339 340 341 342 342 342 341 338 337 337 338 336 335 335 334 332 333 334 334 333 334 335 335 335 335 335 334 334 333 332 331 329 326 324 322 319 316 316 319 320 319 319 322 322 321 320 320 322 322 321 320 319 318 317 319 321 322 323
328 329 324 320 324 324 319 320 321 321 320 318 317 318 318 317 317 316 316 316 315 316 317 317 317 317 317 321 322 321 327 334 334 332 331 333 336 337 337 339 341 341 342 342 342 341 339 337 337 338 337 336 335 335 333 332 332 332 331 332 335 335 335 334 334 334 334 334 332 331 330 327 326 324 321 319 317 316 316 315 315 315 314 312 312 314 315 315 314 311 310 311 316 320 322 323 322
329 330 326 324 327 324 320 321 321 319 318 318 317 317 318 316 317 317 316 316 316 317 317 317 316 316 317 320 320 322 331 335 333 331 333 334 336 337 338 339 341 342 341 342 342 342 341 338 338 338 337 337 336 336 334 332 331 330 330 331 333 334 334 334 334 334 334 334 333 332 330 329 327 326 323 320 318 316 315 314 311 308 305 304 304 305 306 305 304 302 302 306 314 320 322 323 321
329 330 327 326 324 321 321 322 321 319 317 319 317 317 317 316 317 316 316 316 316 317 317 316 317 316 317 322 322 326 334 334 332 332 335 334 334 336 337 338 340 342 342 342 342 342 342 340 339 338 338 337 336 337 335 334 332 331 330 330 333 334 334 334 334 334 334 334 333 332 331 329 328 326 324 322 319 318 316 313 310 306 304 302 301 301 301 300 300 300 300 304 311 318 321 321 320
325 328 326 323 320 319 320 321 322 319 317 317 316 317 317 316 316 316 316 316 317 317 316 316 317 316 318 326 330 332 333 332 332 334 334 333 333 336 337 337 339 341 341 341 341 342 342 341 340 340 339 338 337 337 337 335 333 331 329 329 332 334 334 334 334 334 334 334 333 332 331 329 328 326 324 322 320 318 317 314 311 307 304 301 300 299 299 299 299 299 301 304 310 316 319 319 318
324 327 327 321 319 320 320 321 320 318 318 317 316 317 316 316 315 315 315 315 317 316 316 317 317 317 319 327 332 333 332 330 332 334 334 333 334 335 336 336 338 340 341 340 340 341 341 341 341 340 340 339 338 337 337 337 334 333 329 328 331 333 334 334 334 334 334 334 333 331 330 329 328 326 324 323 321 319 317 315 312 308 303 300 299 298 299 300 301 301 302 305 310 314 317 317 316
324 326 323 319 321 321 320 320 319 320 318 316 316 316 316 316 315 315 315 314 316 316 316 317 318 318 318 324 331 331 330 330 332 334 333 333 334 334 335 335 336 338 340 339 338 339 340 340 341 340 340 340 339 338 338 337 335 334 331 328 330 333 334 334 334 334 334 334 332 330 329 329 328 326 324 322 321 319 317 316 313 308 303 300 299 300 303 305 305 304 304 306 310 313 314 314 314
322 324 321 320 322 319 319 318 318 320 318 316 316 316 317 316 316 315 315 315 315 315 316 317 318 319 318 322 329 328 329 331 332 333 333 333 333 334 334 335 335 336 338 338 337 338 339 340 340 340 340 339 339 339 338 338 336 335 333 328 329 332 334 334 334 333 334 333 332 330 329 328 328 326 323 322 322 320 318 316 314 309 305 302 303 306 308 308 307 306 306 307 309 312 313 313 313
321 323 322 320 320 318 318 318 317 318 318 317 316 316 317 316 316 315 315 316 315 315 316 317 317 319 320 321 325 326 327 330 331 332 333 333 333 334 334 335 335 334 335 336 336 336 337 339 339 339 339 339 339 339 339 339 337 336 335 331 329 331 333 334 333 334 333 333 332 330 329 329 328 325 322 322 323 321 319 316 312 309 306 305 309 312 311 309 308 307 307 307 309 311 312 312 312
319 319 319 318 317 318 317 316 316 317 318 318 317 317 316 317 317 315 316 316 316 316 316 318 316 318 320 319 323 326 327 329 331 331 332 333 333 333 334 335 335 335 334 334 334 335 335 337 338 339 338 339 339 339 339 339 338 336 336 335 331 330 333 334 333 333 333 333 332 330 330 329 328 326 323 323 324 323 320 315 311 310 308 310 312 313 312 310 309 309 309 307 308 309 311 312 313
317 316 318 317 317 318 316 315 316 317 318 318 317 316 316 317 317 316 317 316 317 317 317 318 318 319 320 318 322 324 326 328 329 331 331 332 333 333 334 335 334 335 335 334 333 334 334 336 337 337 337 338 338 339 339 339 339 338 337 337 334 331 331 333 333 333 333 333 332 331 331 330 328 326 324 323 324 324 320 314 311 311 311 312 313 313 312 312 311 310 310 308 307 308 310 311 312
317 316 316 317 317 317 315 315 316 316 317 317 316 316 316 316 316 317 317 316 316 318 319 319 320 322 319 318 322 323 325 326 327 329 330 331 332 332 333 334 334 334 335 334 333 333 333 334 336 336 337 337 337 337 338 338 338 338 337 337 336 333 331 332 333 333 333 333 333 332 331 330 329 326 325 324 324 324 320 313 312 311 312 313 313 313 313 313 312 310 310 309 307 307 309 310 312
317 316 316 316 316 316 315 315 314 315 316 316 316 316 316 316 316 317 317 317 317 318 319 317 317 320 319 319 322 323 323 324 326 328 329 330 331 332 333 333 334 333 334 333 332 333 333 333 334 335 336 336 335 336 338 337 337 338 338 337 337 336 333 332 333 333 333 333 333 333 331 330 329 327 325 324 324 324 321 315 312 312 314 314 314 314 314 313 312 310 309 308 307 307 308 309 311
316 316 316 316 316 316 315 315 314 315 315 315 316 316 317 317 316 316 317 317 317 318 318 316 316 318 320 321 322 323 323 323 325 327 328 329 330 332 332 333 334 333 334 333 332 332 331 331 333 333 334 335 334 336 337 336 336 337 337 338 337 337 335 333 333 332 333 334 333 333 332 331 329 327 325 325 324 323 321 317 314 314 315 315 314 314 315 314 312 309 307 307 306 306 307 309 310
317 317 316 316 316 316 315 315 315 315 315 315 316 316 316 317 315 316 317 317 317 318 318 318 318 317 318 321 322 323 324 324 324 325 326 327 329 331 332 332 333 333 333 333 332 331 330 330 331 332 333 333 333 335 336 335 334 334 335 338 337 337 336 335 334 333 333 333 333 333 332 331 329 328 326 325 325 322 320 318 315 316 316 315 315 315 314 315 312 307 306 306 305 305 305 307 309
317 317 317 317 317 316 316 316 315 315 316 315 315 317 317 316 316 317 318 319 318 317 318 318 318 318 317 318 320 320 321 322 323 325 325 326 328 329 331 331 332 333 333 332 331 331 330 329 329 330 331 332 333 334 334 334 333 332 333 336 337 337 337 336 335 334 333 333 333 333 333 331 330 328 327 326 325 322 321 320 318 319 318 316 316 315 315 315 310 305 305 305 304 303 304 306 308
317 317 317 317 317 317 317 317 316 316 316 315 315 316 317 317 317 317 318 321 319 318 318 318 319 319 318 317 318 318 319 320 323 324 325 326 327 328 330 330 331 333 333 332 331 331 329 328 328 329 331 332 332 333 333 333 333 333 332 333 335 336 337 337 336 335 334 334 333 333 333 332 330 329 328 327 326 324 323 323 322 320 319 317 315 315 316 313 308 304 304 303 302 302 302 304 305
316 317 317 317 317 317 317 317 317 316 316 316 315 317 318 317 319 317 318 320 319 318 318 318 319 319 319 319 319 319 318 318 321 323 324 326 326 327 329 330 331 332 332 331 331 330 329 329 328 329 330 331 331 332 332 332 332 333 333 332 332 333 334 335 336 336 335 334 333 333 332 332 331 330 328 328 327 325 325 325 324 321 319 316 315 316 316 311 307 304 302 301 300 300 301 301 301
317 317 317 318 318 318 317 318 318 317 316 317 316 318 319 318 318 318 319 320 319 319 319 319 320 319 320 320 320 321 319 317 319 322 324 325 325 326 327 329 330 331 331 330 330 330 329 328 328 328 329 330 330 331 331 332 331 332 333 333 332 331 332 334 335 336 335 334 334 333 332 332 332 330 329 328 327 326 325 325 325 322 318 316 315 316 315 311 307 303 300 299 298 298 298 297 297
317 317 318 319 317 317 318 318 317 317 316 317 316 317 319 317 319 320 320 320 319 319 319 319 319 319 320 322 322 322 320 318 318 321 323 324 325 325 325 327 329 331 330 329 329 330 329 328 327 327 328 329 328 329 330 330 330 331 331 332 333 332 332 334 335 335 335 334 334 333 332 331 331 331 330 329 328 326 326 325 325 323 318 316 316 316 315 311 306 302 300 299 297 296 295 294 294
317 317 318 319 317 317 319 317 317 317 316 316 317 318 318 317 319 320 319 318 318 318 318 319 320 319 320 322 323 323 321 318 317 320 323 324 324 325 324 324 326 328 328 327 328 329 329 328 327 326 327 328 327 327 328 328 328 328 329 330 332 332 331 333 334 335 335 335 334 333 333 332 331 332 330 329 329 327 326 325 324 322 318 316 316 315 314 310 304 300 299 298 296 295 294 293 292
319 318 317 319 319 317 318 317 317 317 316 316 317 317 318 317 319 320 319 318 318 318 318 318 319 320 320 322 322 322 322 320 319 318 320 323 323 323 323 322 323 325 326 326 327 328 328 327 326 325 326 327 326 326 326 326 326 325 325 327 330 331 330 330 332 334 334 334 334 333 333 332 332 331 331 330 329 327 326 325 324 321 318 317 316 314 312 308 302 299 297 296 295 294 293 293 292
319 318 316 318 320 317 316 316 317 317 317 316 317 317 317 317 318 319 319 319 319 319 319 319 319 320 321 323 323 322 321 322 321 318 319 321 321 321 322 322 322 323 325 325 326 326 326 325 324 324 324 325 325 325 325 325 325 324 324 326 329 330 330 329 330 332 334 333 333 333 332 332 332 331 330 330 329 327 325 324 323 320 318 317 316 313 309 303 299 298 296 295 295 294 293 293 292
318 319 317 317 317 316 315 316 317 317 317 317 317 317 317 317 317 317 318 319 320 320 319 319 319 320 321 322 322 321 321 321 321 318 318 319 319 320 321 322 323 323 324 325 324 324 324 324 323 322 322 323 323 323 323 323 322 322 324 326 328 328 328 328 328 329 331 332 332 332 331 330 331 331 330 329 329 327 324 323 322 319 318 317 314 311 305 299 298 298 297 295 294 294 293 292 292
317 319 318 316 315 315 316 316 316 316 317 317 317 317 316 316 317 317 318 318 319 319 319 319 320 321 320 321 320 320 322 321 319 318 319 319 319 319 320 321 322 322 323 324 323 322 322 322 321 321 320 321 321 321 321 321 320 321 323 325 326 326 326 326 326 326 327 329 331 331 330 329 329 330 330 329 328 327 324 323 320 318 318 316 313 309 303 300 300 299 297 295 294 293 292 292 291
316 317 317 317 316 316 316 317 316 316 317 317 317 318 317 316 317 317 318 318 319 318 319 319 320 321 321 321 320 320 322 320 318 318 319 319 318 319 320 320 321 322 322 322 322 321 321 321 320 320 319 319 319 319 319 319 319 319 321 323 324 324 324 324 324 323 323 325 328 329 330 329 329 329 329 328 327 326 324 323 320 318 317 315 314 311 307 303 301 299 297 295 294 293 292 291 291
316 317 317 318 318 318 317 318 316 315 318 318 318 318 317 316 317 318 318 318 319 318 318 318 318 319 320 321 321 322 321 321 323 322 319 319 319 319 319 319 319 321 321 320 321 321 320 320 320 319 319 319 319 318 318 318 318 317 318 320 321 322 322 322 321 321 321 322 325 327 328 328 328 328 328 328 327 327 325 323 320 318 316 314 313 310 308 305 301 299 296 294 294 293 292 291 291
317 318 318 318 321 320 318 318 317 315 318 319 319 318 317 317 317 317 318 318 318 318 318 319 320 319 320 320 321 323 323 325 331 327 321 319 319 319 318 318 318 319 319 320 320 320 320 319 319 319 318 318 318 317 317 316 316 315 316 317 318 319 320 319 318 319 320 321 323 324 325 326 327 327 327 327 326 326 325 324 321 319 316 314 313 310 307 304 301 299 297 296 294 293 292 291 292
320 320 318 319 323 321 317 317 318 316 317 320 320 320 318 317 318 317 317 318 317 318 319 319 321 321 320 321 322 325 325 329 333 329 323 319 318 318 318 317 317 318 318 318 318 319 319 318 318 318 318 317 317 316 316 315 314 314 315 317 318 318 318 317 316 318 320 320 321 322 323 324 325 326 327 326 324 323 324 324 322 320 316 315 315 311 307 304 301 299 298 297 295 293 292 291 293
322 324 321 320 321 320 318 319 320 318 319 322 322 323 323 321 321 321 320 321 319 319 320 320 321 322 323 324 326 328 328 330 332 329 324 319 317 317 317 317 317 317 318 318 317 317 317 317 317 317 317 316 316 316 315 314 314 314 316 317 318 317 316 315 315 316 317 318 319 321 322 324 324 325 325 325 324 323 323 322 321 320 317 315 315 314 310 305 302 300 300 299 297 296 293 291 294
320 324 323 321 319 320 323 324 324 321 320 323 323 325 328 324 324 326 325 325 324 322 322 322 322 322 324 326 327 329 330 330 331 328 323 318 316 317 316 316 316 316 317 317 317 317 316 316 316 317 316 316 315 315 314 314 314 315 316 316 316 315 315 314 314 315 316 317 319 320 322 323 323 323 323 323 323 323 322 320 320 320 316 315 314 314 310 304 301 301 302 300 298 297 295 293 294
316 324 327 324 321 322 324 324 325 323 321 322 323 324 325 320 320 323 323 323 323 323 325 325 324 324 326 328 327 328 329 331 332 328 324 318 315 316 316 315 316 316 316 316 316 316 316 316 316 316 316 315 314 314 314 314 314 314 315 315 315 315 314 314 314 315 317 319 319 320 321 321 322 321 322 322 321 321 321 320 321 320 318 317 315 312 309 305 304 304 303 302 299 297 296 294 295
320 326 329 325 322 323 324 324 324 325 324 324 325 324 324 322 319 319 319 319 320 321 323 325 325 325 327 328 330 331 331 334 335 330 326 322 316 315 315 315 315 315 315 316 316 316 316 315 315 315 315 315 314 313 314 314 314 314 314 314 314 314 315 314 313 314 317 319 320 320 320 320 320 320 320 320 320 321 321 320 320 320 319 317 315 313 310 307 305 304 301 300 299 298 298 296 296
325 326 326 326 325 325 325 323 324 327 326 326 328 326 324 323 320 320 320 318 320 322 322 323 325 326 328 329 333 335 334 334 333 331 328 322 316 315 315 315 315 315 315 315 316 315 315 315 315 315 315 314 313 313 313 314 313 313 313 313 313 314 314 314 312 313 316 319 320 320 319 319 318 318 318 319 320 320 321 320 320 319 318 316 316 313 311 308 306 305 302 300 299 298 298 298 297
325 325 326 327 327 325 324 323 324 327 325 325 330 328 318 315 317 320 320 319 322 322 322 324 325 328 334 336 336 336 334 331 328 328 325 318 315 316 315 314 315 314 315 315 315 315 315 315 315 315 314 314 313 312 312 312 313 313 312 312 313 314 314 314 313 314 316 318 318 319 319 318 317 316 317 318 319 319 320 320 319 319 318 317 316 312 310 308 306 307 305 302 300 298 298 298 298
324 325 327 326 324 325 326 325 324 327 326 324 330 328 315 312 319 321 321 324 326 323 321 323 322 328 338 340 337 335 333 329 325 324 320 314 315 315 314 314 314 314 315 315 315 315 315 315 314 314 314 313 312 312 312 311 311 312 312 312 313 314 314 314 313 314 315 316 317 318 317 317 317 317 317 316 316 317 317 318 319 319 318 316 315 312 310 309 308 309 306 302 300 298 298 298 297
325 325 325 326 326 326 326 324 325 328 326 323 327 327 317 314 318 320 322 326 326 322 320 320 320 327 337 339 335 331 330 328 323 323 320 316 316 314 313 314 314 314 315 315 315 315 314 314 314 314 314 313 312 311 311 310 310 311 311 312 313 314 314 314 313 313 314 315 315 315 314 314 314 315 316 314 313 314 315 316 317 318 317 316 315 313 310 309 309 308 304 301 300 299 298 298 298
326 325 325 326 325 326 327 328 330 329 324 323 326 326 320 316 317 321 323 322 322 322 321 321 322 325 332 338 336 331 329 326 323 322 321 319 317 313 311 313 313 314 315 315 315 314 314 314 314 314 313 313 312 311 311 310 309 310 311 312 313 314 314 314 313 313 313 313 313 313 313 312 312 313 314 313 313 314 315 316 317 317 316 316 316 313 309 308 307 305 302 300 300 299 298 299 300
324 325 327 327 323 324 326 327 330 330 325 323 325 327 325 319 319 322 321 320 321 323 324 325 326 326 328 335 340 336 330 326 325 323 321 321 317 311 311 312 313 314 314 314 314 314 314 313 313 313 313 312 312 311 310 309 309 310 311 312 312 313 314 313 313 313 313 313 313 313 314 315 315 315 316 316 317 316 317 317 318 318 317 316 316 313 309 308 307 304 302 300 300 299 299 299 300
321 322 324 326 322 319 321 322 326 329 328 323 321 326 328 320 318 324 324 323 323 323 324 325 327 331 330 330 338 341 334 327 326 325 323 320 314 310 311 312 312 313 314 314 314 313 313 313 313 312 312 312 312 311 310 309 308 309 310 311 312 313 313 313 312 312 312 313 313 313 315 317 318 318 319 319 319 317 316 316 317 317 316 315 314 312 310 308 306 304 302 301 300 300 299 300 300
320 321 322 326 324 317 319 322 322 325 326 325 324 326 327 321 319 322 322 323 324 324 325 324 325 329 328 328 333 336 335 330 328 327 326 320 313 311 312 311 312 313 313 314 314 313 313 312 312 312 312 312 311 311 310 309 308 308 309 310 311 312 313 313 312 311 312 313 314 314 316 317 317 317 318 318 317 316 316 316 316 315 314 313 312 310 309 307 305 303 302 301 300 300 300 300 299
320 323 323 326 326 319 320 323 322 321 321 321 322 321 320 317 317 320 319 318 320 323 325 325 326 327 327 329 331 330 332 334 331 329 328 322 314 312 312 311 312 312 313 314 313 313 312 312 312 311 311 311 310 310 310 309 307 307 308 309 310 311 312 312 311 310 311 312 313 314 314 315 315 315 316 317 317 317 316 316 315 314 313 312 310 308 307 306 304 302 302 301 301 300 300 299 299
324 326 324 323 326 323 321 323 323 323 321 320 319 317 316 315 317 320 319 318 318 321 324 324 325 328 327 329 331 327 329 337 337 331 328 322 315 312 312 312 311 312 312 313 313 313 312 311 311 311 311 310 310 310 310 309 307 306 307 308 309 310 310 311 311 311 312 312 312 312 312 312 312 313 315 316 316 316 314 314 314 314 312 311 309 307 306 305 303 302 301 301 301 300 299 298 298
323 325 323 322 326 326 323 321 321 321 320 320 320 317 316 317 318 319 318 320 322 322 323 323 323 325 326 326 329 325 325 335 340 333 330 326 316 312 313 312 312 312 312 313 313 312 312 311 311 311 310 310 310 310 309 308 307 306 307 307 308 309 309 310 311 312 312 312 312 311 311 310 310 310 312 314 314 314 313 313 313 313 312 310 309 307 306 304 303 302 301 300 300 299 299 298 297
320 321 322 324 325 325 325 323 320 321 319 318 319 318 316 318 320 319 318 321 323 321 322 323 322 323 324 325 326 327 328 335 342 337 333 329 317 312 313 312 312 312 312 313 313 312 312 311 311 310 310 310 309 310 309 308 307 306 306 307 308 308 308 309 310 311 312 312 311 310 309 309 308 308 310 312 313 313 314 313 312 311 311 310 307 306 305 304 303 302 301 300 299 298 298 297 296
320 321 323 325 323 323 326 325 321 322 321 319 320 318 316 318 321 321 321 321 321 322 323 324 324 324 325 327 328 333 337 338 341 339 334 327 315 311 312 312 311 312 312 313 313 312 311 311 310 310 310 310 310 309 309 308 307 306 305 306 307 308 308 308 309 310 310 310 310 310 309 309 308 308 309 310 311 312 313 313 311 309 309 308 306 304 303 302 302 301 300 300 299 298 297 297 297
318 318 320 321 322 322 323 324 322 323 324 322 322 319 317 320 321 320 321 323 323 324 326 326 327 327 328 331 333 338 341 339 338 334 330 325 314 310 311 311 310 311 311 312 312 312 311 311 310 310 309 310 309 309 309 308 307 306 305 305 306 307 308 308 308 309 308 308 309 309 309 309 308 307 307 309 310 310 310 309 308 307 306 304 302 301 300 300 300 300 299 298 298 297 297 297 296
Wind_Speed
8 5 6 8 7 7 6 4 1 2 2 4 4 2 3 3 2 4 5 3 2 4 4 4 5 4 2 2 4 9 8 6 3 1 1 5 12 12 12 15 15 16 15 14 15 14 13 13 12 11 12 13 13 13 14 15 14 14 13 14 14 14 13 13 15 15 14 14 15 16 16 16 16 17 18 18 19 19 20 19 19 19 19 18 17 16 16 17 18 17 17 17 19 21 24 25 23
7 4 5 8 7 4 3 2 1 2 3 4 4 4 3 2 1 4 6 5 4 4 4 5 5 4 1 3 1 6 8 8 6 4 5 12 14 11 13 14 13 14 13 13 14 13 13 13 13 12 12 13 13 12 13 14 13 13 12 13 14 14 13 14 15 15 14 14 14 15 15 15 15 16 17 18 18 19 20 20 19 19 19 18 15 15 16 17 17 16 16 17 19 21 22 22 22
6 4 3 6 7 4 3 1 2 2 4 4 3 2 4 3 4 8 8 7 6 5 5 4 4 2 3 2 2 4 5 7 9 6 7 14 12 10 13 13 14 14 12 13 12 11 12 12 13 13 12 13 12 12 12 12 13 12 12 12 13 14 14 14 15 14 13 14 14 15 14 14 15 16 17 17 19 20 20 19 19 19 17 16 16 15 15 17 16 15 15 16 19 21 21 21 22
5 2 3 5 3 3 3 2 2 3 4 4 3 2 3 5 8 9 7 7 5 4 3 2 2 1 3 3 3 4 6 5 9 9 6 11 12 13 14 13 14 13 13 13 11 11 12 12 13 14 12 12 12 11 11 11 12 12 12 12 13 13 13 14 14 13 13 13 14 14 14 14 15 16 16 18 19 20 19 19 19 17 14 15 16 15 15 16 16 16 15 16 19 21 21 23 25
4 2 4 5 1 1 2 2 1 4 4 2 4 3 4 8 8 8 6 6 4 4 2 1 2 0 1 3 3 2 4 4 10 11 9 11 15 16 13 14 14 13 13 13 12 11 12 12 12 13 12 11 11 11 11 10 11 12 12 12 12 13 13 13 13 13 12 13 13 13 13 14 15 16 16 17 19 20 20 18 18 16 14 15 16 16 16 16 15 16 15 17 20 21 22 25 27
7 5 5 5 2 1 1 2 2 6 4 3 5 3 6 8 8 8 7 5 4 5 3 1 1 0 3 3 5 4 2 5 9 9 11 15 17 16 14 16 14 13 12 13 14 11 12 12 12 13 12 10 10 10 10 10 10 11 12 12 12 12 13 13 13 12 12 12 12 13 13 14 15 15 16 17 18 20 19 19 18 16 16 16 16 16 16 15 15 15 15 18 20 21 23 25 26
7 5 3 3 2 1 2 0 5 5 4 5 5 5 7 8 8 8 7 5 3 3 2 2 1 1 2 3 5 5 6 8 9 8 13 16 16 16 17 16 13 13 12 13 13 11 13 12 12 13 12 10 9 10 9 9 10 10 11 11 11 12 12 12 12 12 11 11 11 12 13 14 14 15 15 16 18 19 19 18 17 16 16 16 15 15 15 14 15 15 16 18 19 21 23 24 25
4 3 1 1 2 1 2 3 6 4 1 4 5 5 9 9 7 7 6 4 2 3 2 0 0 1 2 2 3 4 9 11 13 13 17 17 16 16 16 14 12 13 13 13 12 12 14 13 13 13 12 10 9 9 9 9 9 10 10 10 11 11 11 12 12 11 11 11 11 12 12 13 14 14 15 15 17 18 18 18 17 15 15 15 15 15 15 14 14 16 16 18 19 19 21 23 24
3 2 1 1 2 2 1 4 5 4 4 4 5 5 8 8 7 7 5 4 4 4 4 3 1 2 1 3 5 6 9 13 17 16 16 16 17 17 15 13 13 14 14 13 11 12 14 13 13 13 13 11 10 10 9 10 9 10 10 10 10 10 11 11 11 10 10 11 11 12 12 13 14 14 14 15 16 17 18 17 17 16 16 16 16 16 16 16 15 16 17 17 18 18 20 22 23
3 2 0 1 3 3 2 4 5 4 5 5 5 5 6 6 5 6 5 5 5 4 5 3 3 1 1 5 5 5 10 14 17 16 14 14 15 16 15 13 14 14 14 12 10 13 15 14 13 13 13 12 11 10 10 10 10 10 9 10 10 10 11 11 11 10 11 11 11 12 13 13 13 14 14 15 16 16 16 16 16 17 17 17 17 17 16 17 16 17 17 17 17 17 19 20 21
1 2 0 1 3 3 1 4 5 4 5 5 6 5 4 4 3 3 5 6 5 5 4 2 2 2 1 5 2 5 14 15 16 16 15 14 14 13 14 14 13 14 13 12 11 12 14 14 13 13 13 13 12 11 11 11 10 10 9 10 10 10 11 11 11 10 10 11 11 12 12 13 13 13 13 14 16 16 16 15 16 16 16 17 17 17 17 17 17 16 16 17 17 17 18 18 18
1 2 1 2 4 1 2 3 5 5 5 4 5 5 3 4 3 3 4 5 4 5 5 4 1 0 2 3 2 8 14 13 15 17 16 16 14 12 13 14 12 13 12 11 10 12 15 15 14 13 13 12 13 12 11 11 10 10 9 10 10 10 11 11 11 11 10 11 11 12 12 12 13 12 12 13 14 15 15 15 15 15 15 15 15 16 16 16 15 16 16 16 16 16 17 17 17
1 3 2 3 4 2 3 3 5 5 4 5 5 5 5 4 4 4 3 4 5 4 4 4 1 1 1 4 4 8 10 13 16 16 15 15 13 12 14 12 11 12 11 11 10 11 14 15 14 13 12 11 12 12 11 11 11 10 9 10 11 10 11 11 11 11 10 11 11 11 11 12 12 11 11 12 13 13 13 13 13 14 13 13 14 14 14 14 14 14 14 15 15 16 17 17 18
1 3 1 3 2 2 2 2 2 3 2 4 7 6 5 3 3 2 3 4 4 2 2 3 2 2 1 4 4 4 8 15 17 16 15 15 14 14 14 12 12 12 10 12 11 12 13 14 14 13 13 11 12 12 11 12 11 11 10 10 12 11 11 11 11 11 11 11 11 11 11 11 11 10 11 11 11 12 12 12 12 12 12 13 13 13 14 14 15 15 15 15 16 16 17 18 18
1 3 1 2 1 1 2 2 1 0 2 5 6 7 6 2 1 2 2 2 2 0 2 4 3 2 1 3 3 5 12 17 17 17 16 15 15 14 13 12 13 11 11 13 13 13 13 13 13 13 13 13 13 13 12 12 11 11 11 11 13 12 12 12 12 12 11 11 11 11 10 10 10 10 10 10 10 11 11 11 11 11 12 13 14 14 15 16 16 16 16 16 16 16 17 18 19
1 2 1 2 1 1 1 1 2 2 2 4 5 7 6 3 2 2 2 1 2 0 1 2 2 2 3 4 6 11 17 17 17 17 16 15 15 13 12 11 12 11 11 13 14 14 14 14 13 12 13 14 14 13 13 13 12 12 12 12 14 13 13 13 12 12 11 12 11 11 10 10 11 10 10 10 10 10 10 11 11 11 12 14 15 16 17 17 17 17 17 17 16 17 17 18 20
1 1 0 2 2 2 3 3 3 2 4 4 5 6 6 4 1 1 1 0 3 2 1 3 4 3 4 7 12 17 17 16 17 18 16 16 15 14 12 12 13 12 11 12 14 15 15 16 15 13 14 15 15 14 13 13 13 12 12 13 14 14 13 13 13 12 12 12 13 11 10 10 9 10 10 10 10 10 10 10 10 11 13 15 16 17 18 18 18 18 18 18 17 17 18 18 19
1 1 1 4 2 1 1 2 3 4 6 5 6 6 5 6 3 2 2 1 2 3 3 4 6 7 9 12 15 16 16 17 18 18 17 16 16 15 14 15 16 15 14 12 13 15 16 17 16 14 15 15 15 15 15 15 15 14 13 14 15 15 13 13 13 13 13 13 13 12 11 9 8 9 10 11 11 10 10 9 10 11 13 15 17 18 18 19 18 18 18 18 19 19 19 20 20
1 1 3 3 1 2 4 6 5 3 5 6 6 6 3 6 6 3 2 4 5 4 4 5 5 6 9 12 14 15 16 17 17 17 17 17 16 16 16 17 18 18 17 16 15 16 17 19 17 14 15 16 16 16 16 16 17 16 15 15 15 15 14 13 13 13 14 14 14 13 12 10 8 9 11 12 12 11 10 9 10 11 13 15 17 18 18 18 18 18 18 18 19 20 21 21 21
0 0 1 1 2 3 7 8 6 6 3 6 6 2 0 4 5 4 3 5 6 7 6 6 7 6 8 10 13 15 15 16 17 16 16 16 16 16 17 18 19 20 20 19 18 17 18 19 19 16 15 16 16 16 16 16 18 18 16 16 17 17 16 14 14 14 15 15 14 13 14 13 10 10 12 12 11 11 10 10 10 12 14 16 17 18 18 18 18 17 17 18 18 19 21 21 22
1 0 1 2 3 4 6 7 6 6 5 4 7 2 0 3 3 3 4 3 4 6 7 8 9 10 11 10 13 16 15 16 16 16 16 16 16 16 17 18 19 18 19 20 20 20 20 21 22 20 17 17 17 17 16 16 18 19 18 17 18 18 18 16 15 16 15 16 15 14 16 16 12 11 12 12 10 10 10 11 12 13 15 17 18 18 18 16 14 14 15 17 18 20 21 22 23
0 1 3 3 4 3 4 5 6 5 5 5 6 2 1 3 2 3 4 3 3 2 2 3 3 7 13 13 13 14 13 14 15 16 16 17 17 17 16 17 18 16 17 20 21 22 21 21 24 24 21 18 18 17 16 16 18 20 19 18 19 19 20 18 16 17 16 17 18 17 18 17 14 13 13 12 9 8 10 12 13 14 16 18 18 17 15 13 12 12 14 16 18 20 21 22 24
0 1 5 5 4 4 3 4 3 5 4 4 2 0 2 3 1 4 6 6 3 4 6 6 7 8 16 16 13 12 10 12 15 18 19 18 19 19 18 18 20 19 18 19 20 21 22 21 23 25 24 21 20 17 15 16 16 18 19 19 20 19 20 19 18 18 17 18 19 18 18 18 17 15 14 13 10 9 11 12 14 15 17 17 16 14 14 13 12 12 13 15 18 20 22 23 24
1 1 4 3 5 6 4 3 2 4 5 3 3 4 2 2 2 0 3 8 6 3 8 7 8 12 16 13 10 11 11 13 16 19 20 20 20 20 19 18 20 20 18 19 20 21 23 23 23 24 24 24 24 19 17 17 16 17 18 19 21 20 20 21 20 19 18 18 19 18 18 18 18 17 16 14 12 12 13 13 14 16 15 14 14 14 14 14 13 13 14 16 19 21 22 23 24
2 1 5 2 3 6 5 4 3 3 3 3 3 3 3 2 2 2 4 8 7 3 7 7 8 10 10 10 10 10 10 14 16 18 19 20 19 19 19 18 19 21 20 20 21 20 23 25 24 23 23 24 24 22 19 19 18 18 19 19 21 22 21 22 21 21 19 19 19 19 19 19 19 19 18 16 14 16 15 15 16 16 15 14 15 15 14 14 14 14 16 18 21 22 23 24 24
2 3 5 4 5 5 4 4 4 2 1 2 1 3 3 3 4 3 8 9 8 6 6 7 7 7 7 8 9 9 9 12 16 18 19 20 18 19 21 20 19 21 22 21 21 20 21 25 26 26 25 23 23 23 22 20 19 20 20 20 21 21 22 22 21 21 21 19 19 20 20 20 20 20 20 18 17 19 17 17 18 17 17 16 15 15 15 14 14 15 18 20 22 23 23 24 24
1 4 5 5 6 4 2 3 5 2 2 3 1 4 2 4 3 4 5 4 6 8 7 7 7 7 7 7 8 10 10 13 18 18 17 18 18 20 22 22 21 21 22 22 22 21 21 23 25 26 26 24 23 23 23 22 20 19 20 21 21 20 21 23 22 21 22 21 20 21 20 21 21 20 21 20 19 22 20 19 20 18 18 17 16 16 16 14 15 18 20 21 22 23 24 24 24
1 3 4 5 5 5 3 3 5 3 2 3 2 4 3 4 1 8 5 0 3 7 7 7 7 6 7 7 7 8 10 14 19 18 16 19 21 22 23 25 25 22 22 23 24 24 22 22 23 24 24 24 24 24 23 22 20 19 19 20 21 21 21 22 22 22 22 22 22 22 22 23 23 21 22 22 22 23 22 19 19 19 18 18 18 18 17 16 18 21 22 22 22 23 24 24 24
1 1 1 5 5 4 6 5 5 4 2 3 2 3 6 4 8 13 7 5 4 5 6 6 7 6 6 7 7 7 9 13 16 18 20 21 23 24 24 26 26 25 24 23 24 25 24 23 23 23 23 23 24 25 23 22 20 18 18 19 19 20 23 23 22 23 23 23 24 23 23 24 23 23 24 24 23 24 22 19 20 21 20 20 20 18 18 19 21 22 23 23 23 24 25 25 24
1 3 1 3 3 3 7 5 5 4 2 3 3 1 6 6 13 13 5 8 6 5 6 6 6 6 7 7 7 7 9 12 14 18 21 21 23 24 25 24 25 26 25 24 25 25 25 25 24 24 24 23 24 25 24 24 23 19 15 16 17 17 21 24 24 24 24 23 24 24 24 25 24 24 26 26 24 24 24 22 22 22 21 22 21 20 20 21 22 24 25 25 25 25 26 25 25
1 2 0 1 2 1 4 4 6 4 1 3 4 1 7 7 6 4 4 6 6 5 6 6 6 6 7 7 7 7 8 12 15 18 21 22 23 24 25 24 25 26 26 26 26 26 26 26 26 25 26 25 24 25 25 24 23 22 17 15 17 17 19 23 24 26 26 24 25 25 25 27 25 24 27 28 26 26 27 25 24 24 24 24 23 21 21 22 24 25 27 27 26 26 26 25 25
1 2 1 3 2 1 2 2 5 4 1 3 5 2 7 6 1 4 4 4 4 5 6 6 7 7 7 7 7 7 7 12 17 19 20 22 23 23 25 26 27 28 28 27 28 27 26 26 27 26 27 27 25 25 26 24 23 22 21 18 18 19 20 22 23 23 26 27 26 26 26 27 26 25 27 29 27 26 28 28 26 27 27 26 24 23 23 23 25 26 26 27 29 28 27 25 24
2 2 2 2 4 3 2 1 1 2 1 4 5 3 4 2 2 4 4 5 5 6 6 7 7 7 7 6 7 7 7 9 13 17 21 23 25 25 26 27 28 30 30 28 28 29 28 27 28 28 29 29 28 26 25 26 24 22 21 20 20 21 21 23 23 21 24 26 26 26 27 27 26 26 27 28 26 26 29 29 28 29 29 27 26 25 25 25 27 27 25 26 29 30 29 27 25
3 4 3 2 2 3 2 1 2 2 1 3 5 5 5 6 5 4 4 6 7 7 8 8 7 7 7 7 7 7 7 7 9 16 23 25 27 28 27 27 28 29 30 29 29 30 29 28 28 29 29 29 28 27 25 25 25 22 21 20 20 23 23 24 26 24 23 24 24 25 25 25 25 26 28 28 26 27 29 30 30 31 30 29 28 27 27 27 28 28 26 25 26 29 29 28 27
2 4 3 3 2 4 3 1 3 4 2 3 5 6 8 9 9 8 8 8 8 8 9 8 8 8 7 7 8 7 8 9 10 18 26 28 29 29 29 28 28 29 29 28 28 29 29 28 27 28 28 28 28 27 25 24 23 22 23 22 20 21 23 24 27 29 26 25 24 24 24 25 25 25 28 29 27 28 31 31 31 33 32 31 31 30 30 30 28 28 27 26 25 26 27 29 29
2 1 2 2 2 2 2 2 3 3 2 4 6 7 8 9 9 9 9 8 8 9 8 8 8 8 7 8 8 8 9 9 12 21 27 29 30 30 30 29 28 28 28 28 27 28 29 28 27 27 27 27 26 25 25 24 23 23 25 25 22 21 23 24 27 29 29 28 26 25 25 25 25 25 27 29 29 31 33 33 33 34 33 34 34 33 33 33 31 30 29 29 28 25 26 28 29
4 3 2 3 3 2 1 3 1 1 1 5 6 7 10 9 9 9 8 8 9 9 9 9 8 7 8 9 9 9 9 9 12 19 26 29 29 29 28 27 26 26 27 28 28 29 30 30 29 28 28 27 26 27 27 27 27 26 27 27 26 24 24 25 27 29 29 30 29 28 27 25 26 26 28 30 31 32 33 34 34 35 35 36 36 35 36 34 32 31 30 30 30 29 28 28 29
3 3 2 3 3 5 1 4 2 2 2 4 5 7 11 11 9 8 8 9 10 11 11 11 10 9 8 9 11 11 9 8 9 13 19 23 24 24 25 25 26 27 28 29 30 30 30 30 30 29 29 29 28 29 29 29 29 28 28 29 28 26 26 27 27 28 29 30 30 29 28 27 26 26 28 32 33 33 34 35 36 36 37 38 36 35 35 34 33 32 32 31 29 31 30 30 32
2 1 1 3 3 2 2 4 3 2 2 4 6 6 10 12 11 11 11 11 11 11 11 11 10 10 10 9 9 9 9 8 7 8 11 18 20 21 22 23 26 27 27 28 29 29 29 29 29 29 28 29 29 28 28 28 28 27 26 25 26 25 26 27 26 26 27 28 29 29 28 27 26 27 31 34 35 36 37 37 37 37 39 39 37 35 34 34 34 34 35 33 30 29 27 32 33
2 2 1 3 2 1 1 1 3 4 4 3 6 6 8 11 12 13 13 12 11 11 11 11 10 11 12 10 8 8 8 8 8 7 9 14 18 20 22 23 24 24 24 25 26 26 27 27 27 28 28 29 28 27 27 26 23 23 22 20 22 24 24 24 23 24 26 26 27 27 27 27 27 29 33 35 36 36 36 36 37 38 40 40 38 37 36 36 37 37 36 34 34 30 27 31 28
4 5 4 4 2 1 2 1 1 3 2 1 4 6 6 8 9 10 9 8 9 9 10 11 11 11 11 10 8 8 8 7 7 8 8 11 15 19 21 21 21 22 23 24 25 26 26 26 27 27 28 28 28 28 26 24 20 21 22 21 22 23 21 21 22 24 25 25 26 26 26 27 28 31 35 36 34 33 35 36 38 39 41 41 39 39 38 38 39 38 37 35 36 34 32 32 24
4 5 6 5 3 3 2 5 5 4 3 1 1 4 5 3 5 8 7 5 6 6 8 11 11 10 9 9 9 8 8 7 7 8 9 11 14 16 17 18 20 22 23 24 25 26 26 27 27 26 26 26 26 27 25 24 23 24 26 26 26 24 23 24 26 27 27 27 26 26 26 26 29 32 34 35 34 35 36 37 38 39 41 41 40 40 39 40 39 38 37 35 35 34 34 34 27
3 4 2 0 2 4 4 5 3 2 4 3 2 1 5 4 4 9 8 7 8 6 8 10 9 8 8 8 8 7 7 7 7 7 8 10 12 14 16 19 22 22 23 23 23 25 25 25 26 26 25 26 26 25 25 26 26 26 28 29 28 27 26 26 26 26 27 27 26 25 25 26 28 30 32 33 34 35 36 37 37 39 40 41 41 40 39 40 40 38 37 36 34 33 34 36 32
2 4 4 4 4 2 2 3 1 2 5 4 5 5 5 6 6 11 12 11 10 8 9 10 8 8 8 8 8 8 7 7 6 6 7 9 12 16 18 20 22 21 21 21 22 24 24 23 24 25 25 25 26 25 25 27 27 27 28 28 26 26 25 24 23 24 25 26 25 25 25 26 28 30 31 33 34 34 35 36 37 38 40 41 41 41 40 40 40 38 36 34 34 34 35 36 34
1 3 2 5 5 3 2 2 2 2 5 5 4 6 3 7 5 8 10 10 8 9 10 9 8 8 7 5 5 6 5 6 7 7 7 8 13 17 18 19 20 19 20 20 22 23 23 23 23 25 25 25 25 26 26 27 26 27 27 27 25 24 22 21 21 23 23 24 25 25 25 27 28 30 31 32 33 34 35 36 37 38 39 40 40 40 40 40 39 38 37 35 34 34 34 35 34
3 2 5 6 4 4 3 1 2 3 4 4 5 6 2 8 5 6 7 7 7 9 9 8 8 7 5 5 6 7 6 6 7 6 6 8 14 16 15 17 18 18 19 20 21 22 23 23 23 25 25 25 25 26 27 26 26 26 26 26 25 23 21 20 21 23 24 25 25 25 27 28 29 30 31 31 32 33 34 35 36 38 38 39 40 40 40 40 38 38 38 37 36 34 33 33 32
5 4 5 5 3 4 3 1 3 3 4 4 8 10 3 5 4 5 6 6 7 7 5 6 7 4 6 6 7 7 6 5 6 6 6 8 12 14 14 16 17 18 19 20 21 23 24 24 24 25 25 25 25 26 27 26 26 26 26 27 26 25 23 23 24 25 26 27 27 27 29 30 30 31 31 32 32 33 34 35 35 37 38 38 39 39 40 40 39 38 37 36 35 33 32 30 27
3 3 4 3 2 3 3 2 3 1 6 4 6 10 7 5 5 1 3 5 7 7 5 6 5 2 5 6 6 7 6 6 6 6 6 7 9 11 14 16 17 19 20 22 23 23 24 25 25 25 25 25 25 26 27 26 26 27 27 27 27 27 25 25 26 27 28 28 28 29 29 30 30 31 31 32 33 34 34 35 35 36 37 38 38 39 39 39 38 37 36 36 35 33 30 27 24
1 4 5 4 1 1 1 1 1 3 6 4 1 5 5 9 5 3 5 3 5 6 4 4 2 1 2 6 6 6 6 7 6 6 6 6 6 9 13 16 18 21 22 23 24 24 25 25 25 26 26 25 24 26 26 24 25 28 29 27 27 27 27 27 27 27 28 28 29 30 30 31 31 31 32 33 35 36 36 36 36 36 37 37 38 39 39 38 37 36 35 35 34 32 29 27 23
4 5 6 5 3 2 3 3 2 4 5 3 2 3 4 7 3 6 10 10 9 7 4 4 3 4 5 5 7 6 6 7 6 6 7 6 7 10 14 16 19 21 23 24 24 25 25 25 25 26 26 26 25 25 25 24 25 28 31 30 27 27 27 28 28 28 29 29 29 31 33 33 33 33 33 34 35 37 37 38 37 36 36 37 38 39 39 38 37 36 35 35 34 31 29 26 23
6 5 4 5 5 4 4 3 3 4 3 2 0 1 3 3 2 4 3 5 5 6 7 6 5 7 6 4 6 6 6 6 6 7 7 7 9 13 15 17 19 21 23 24 24 25 25 25 26 26 27 28 27 25 25 25 25 27 31 32 29 27 27 29 29 28 29 30 30 32 33 34 34 34 34 35 37 39 39 38 37 36 36 37 38 38 38 37 36 35 35 35 33 31 29 26 24
4 2 2 4 4 3 2 2 3 2 2 3 2 4 5 3 6 7 4 7 5 5 7 7 7 8 4 4 6 6 6 6 6 7 7 8 11 15 17 18 19 21 22 23 24 25 26 25 26 27 27 27 29 28 27 26 25 26 30 32 31 29 28 29 29 29 29 30 30 31 32 33 33 34 35 36 37 37 37 37 37 36 37 37 37 37 38 37 35 35 35 35 33 32 30 27 25
3 3 4 4 1 3 2 2 1 4 2 5 3 6 6 3 8 9 10 12 9 5 5 7 8 8 6 7 8 6 6 7 7 8 8 8 11 15 18 19 20 21 22 24 25 26 27 27 26 27 27 27 28 29 29 27 25 26 29 31 31 30 29 29 30 29 29 28 28 29 29 31 32 33 35 36 36 36 36 36 36 36 37 37 37 36 37 36 35 35 35 35 34 32 31 28 26
4 4 5 1 4 2 2 0 2 1 5 5 3 8 8 4 6 4 4 9 9 6 7 8 8 8 8 8 8 9 6 7 7 8 8 8 10 14 17 19 20 22 23 24 25 26 27 27 27 27 28 28 28 28 28 28 26 26 28 30 31 31 29 30 30 30 29 28 28 29 29 31 31 32 34 35 36 36 36 36 36 36 37 37 37 36 36 34 34 35 35 35 34 33 31 28 26
4 2 2 3 1 2 2 2 2 3 5 5 4 8 7 6 7 5 4 7 8 8 9 9 9 9 8 8 9 11 6 6 6 6 7 7 9 13 16 17 19 20 22 23 24 25 26 27 27 28 28 28 28 27 27 27 26 26 27 29 31 31 30 30 31 30 30 30 29 30 31 31 31 31 32 34 35 35 35 35 35 36 36 36 36 36 36 35 35 35 35 34 33 32 31 28 26
2 2 2 2 2 3 4 3 3 3 4 5 6 7 6 6 6 7 10 10 10 10 8 8 9 9 8 8 9 10 7 6 7 6 7 6 8 13 15 17 18 19 21 22 23 25 27 28 28 28 28 27 27 27 28 28 26 25 27 29 31 31 30 31 31 31 31 31 31 31 31 31 31 31 32 34 35 35 36 36 36 36 36 36 35 35 36 36 36 36 35 34 33 31 30 29 27
3 2 2 3 2 2 1 1 2 4 3 3 4 8 8 5 4 8 10 9 10 10 8 8 9 8 8 8 8 8 7 6 6 6 6 6 7 11 13 14 16 18 19 21 24 26 27 28 29 29 29 28 28 28 28 29 28 27 27 30 32 33 32 32 32 32 32 32 32 32 32 31 31 32 33 34 35 36 37 37 37 36 37 37 37 36 36 36 36 36 35 34 33 32 31 30 28
9 7 8 9 6 4 2 3 3 2 2 3 2 8 11 4 3 4 6 5 7 9 9 8 8 8 8 8 8 7 6 5 5 6 6 5 7 9 11 12 14 17 19 22 24 25 26 28 29 30 30 29 29 29 29 29 29 28 29 30 32 33 34 34 33 33 33 33 33 33 32 32 33 33 33 34 36 37 37 37 37 37 37 37 37 36 36 37 37 37 36 35 34 33 32 30 29
Wind_Direction
310 302 308 304 290 302 284 233 273 245 169 85 96 111 75 56 108 130 112 116 102 64 44 56 48 28 25 350 65 77 46 30 42 13 127 133 129 135 136 129 127 127 134 139 139 138 132 126 120 122 125 123 120 120 120 118 116 114 115 114 115 115 110 105 101 97 93 91 87 81 75 71 69 70 72 73 76 77 79 82 84 85 85 85 88 94 91 86 82 80 78 71 69 74 79 80 78
311 298 295 286 264 266 271 176 245 241 120 82 76 82 102 119 158 99 89 81 75 81 64 58 55 60 328 294 90 87 58 51 71 79 106 124 125 131 138 136 133 132 137 136 134 137 135 131 125 122 125 127 124 121 121 122 121 119 119 117 115 112 109 107 103 100 99 98 92 86 80 75 72 74 75 76 79 80 81 83 84 84 86 87 86 90 92 89 86 82 76 70 72 77 79 80 79
311 299 300 279 247 219 275 186 237 263 111 100 72 100 154 139 92 75 73 77 81 91 83 83 84 65 296 294 25 67 81 75 91 93 116 135 135 141 148 145 140 137 137 135 134 142 140 135 129 124 128 128 126 124 123 124 125 123 122 122 117 113 109 106 105 104 105 104 96 90 83 77 76 78 79 81 85 85 85 86 87 87 91 98 95 92 93 91 88 84 76 72 76 79 80 80 83
309 318 332 304 254 201 267 218 252 333 76 100 96 169 161 100 88 81 79 83 87 100 106 119 104 5 342 27 19 70 96 78 107 114 125 147 151 147 150 147 142 140 140 140 143 149 145 142 133 129 132 130 128 127 125 126 126 125 123 123 120 116 111 108 109 106 106 104 97 91 85 81 81 83 84 87 91 92 91 90 91 91 92 102 103 100 96 92 90 85 77 77 82 83 82 83 87
331 331 283 290 296 206 284 268 323 36 38 59 114 160 107 94 97 97 93 86 79 71 58 68 85 316 54 37 354 84 103 84 104 107 107 123 137 140 148 151 145 145 144 145 152 153 151 150 139 134 136 134 132 129 129 130 129 127 127 127 124 119 115 114 112 108 106 104 98 94 88 84 84 85 87 89 95 98 96 94 95 93 86 90 96 95 92 91 89 84 80 82 85 86 87 89 91
333 312 247 242 276 337 312 291 63 75 2 7 108 119 94 103 107 108 106 91 75 62 25 35 77 82 99 58 49 60 65 121 103 95 116 124 136 143 153 155 147 147 146 149 156 156 154 154 146 142 139 138 136 133 133 134 132 129 130 131 128 124 120 119 115 111 110 107 102 97 89 85 84 85 88 90 96 100 99 97 98 99 92 88 90 91 88 88 87 85 85 85 86 88 91 92 92
323 312 224 227 274 255 253 318 76 84 345 6 87 110 99 107 113 119 121 108 93 95 26 15 331 2 114 116 80 53 42 110 114 113 135 129 137 149 155 151 147 152 148 154 159 155 156 156 153 148 142 143 143 141 141 138 136 132 132 131 130 125 122 122 119 115 114 112 106 97 89 85 84 84 87 91 96 99 99 97 96 101 102 94 92 92 91 91 90 90 90 89 88 90 93 94 93
300 296 137 304 278 228 261 65 68 76 38 28 51 88 105 115 126 134 140 138 141 146 151 158 295 24 151 146 96 85 66 96 114 125 139 138 146 152 151 150 154 154 150 163 165 157 159 159 157 153 148 149 151 149 149 148 142 137 135 135 133 128 128 128 123 118 116 114 108 100 92 87 86 86 87 92 98 100 98 96 93 98 102 96 95 96 95 93 93 95 93 90 89 91 95 96 95
236 236 47 338 268 250 279 92 90 93 113 94 67 74 103 127 142 141 141 130 138 145 144 156 109 71 171 99 92 118 99 109 117 123 139 150 157 152 148 154 160 157 159 171 167 162 162 161 160 154 150 150 154 154 155 155 150 145 142 142 138 135 137 132 125 121 118 118 113 105 97 93 91 90 90 94 99 102 100 99 96 95 96 95 97 98 97 96 96 96 92 90 90 93 98 99 98
215 199 348 304 270 236 221 106 105 106 108 104 110 107 106 135 151 147 142 122 138 131 101 89 87 118 187 110 106 125 126 132 125 124 137 146 149 145 145 150 159 160 165 171 161 167 166 161 160 156 152 149 153 155 158 160 157 154 150 149 145 146 144 135 130 126 123 122 117 109 102 98 96 95 95 97 101 102 103 103 101 99 99 98 98 98 99 97 95 95 93 91 92 95 99 102 100
227 198 194 294 270 232 202 105 110 111 107 100 111 118 119 136 136 152 135 116 133 120 106 115 121 197 181 106 89 124 135 142 132 132 138 141 141 144 149 146 155 160 164 169 162 168 169 165 164 162 158 152 154 155 160 163 164 161 159 160 155 153 148 140 136 131 129 128 122 114 108 104 101 100 98 100 103 104 105 105 105 105 105 104 104 102 99 97 95 93 92 92 96 99 101 104 99
267 224 159 276 274 317 28 86 110 110 119 131 122 125 137 132 135 166 134 120 137 129 138 175 146 201 177 100 99 143 143 144 138 141 144 143 139 144 155 145 147 159 166 172 168 170 174 173 168 169 167 159 157 156 160 164 169 170 166 168 164 157 150 146 142 137 134 133 128 120 114 109 104 103 102 102 105 106 106 108 109 107 107 111 111 105 98 95 94 92 93 96 101 102 103 105 99
268 253 173 239 272 31 26 50 102 123 149 162 134 134 142 141 168 169 150 143 146 152 143 148 114 32 124 89 113 150 142 135 138 143 143 140 139 145 153 146 147 158 170 175 170 171 177 179 174 174 172 168 165 161 163 165 172 176 171 169 168 162 154 152 147 142 141 139 134 125 119 113 109 105 104 104 105 107 106 107 107 106 107 111 110 104 101 100 98 98 101 105 107 107 107 107 102
280 291 217 236 283 23 41 73 126 159 155 128 120 138 146 149 193 148 147 151 128 163 117 89 84 70 102 106 133 166 130 131 141 141 137 140 145 148 151 159 162 156 168 176 172 173 178 184 183 180 176 175 174 169 169 169 173 177 174 169 171 167 158 156 151 149 147 143 139 132 125 117 113 108 107 106 105 106 105 105 105 107 108 106 106 105 106 106 105 106 107 110 112 113 111 110 105
312 326 313 295 316 22 54 98 111 67 94 110 123 146 140 83 359 51 62 107 84 331 82 48 43 62 47 103 147 147 131 136 141 138 139 145 145 148 154 169 172 159 167 174 172 174 178 183 187 187 183 182 182 178 177 175 174 178 176 171 175 173 164 162 159 157 152 147 144 137 131 124 120 114 112 110 108 108 106 107 107 109 109 107 107 108 108 108 108 108 108 110 112 114 114 111 109
344 335 319 309 294 136 171 141 73 37 90 124 143 146 131 78 14 62 23 51 99 333 43 56 46 51 36 70 115 122 134 143 142 139 140 141 142 150 158 168 173 166 173 179 175 173 176 181 184 185 187 191 191 185 183 182 177 177 179 177 179 178 171 169 166 163 156 150 147 142 139 131 126 122 120 117 114 115 111 111 111 112 111 110 112 112 112 110 109 107 106 107 110 112 112 112 112
307 322 337 267 241 158 179 159 123 138 115 128 156 153 137 126 24 98 193 280 113 122 113 94 74 69 75 105 126 126 137 146 144 144 141 142 148 155 162 170 177 177 180 188 186 181 177 179 182 180 186 197 196 191 189 188 182 180 182 182 183 181 177 174 170 165 159 154 151 151 149 143 135 129 127 126 123 122 120 117 115 115 115 116 117 118 117 115 113 111 110 109 109 110 111 112 114
289 172 226 246 231 188 194 94 93 138 136 146 163 176 159 140 163 127 132 215 130 147 154 117 80 77 99 120 133 136 143 148 150 153 149 152 159 162 170 178 182 187 187 188 194 195 186 179 181 180 184 195 197 193 191 192 189 185 185 183 185 185 181 178 174 170 165 161 160 159 155 155 153 142 137 135 131 127 124 121 120 121 122 123 123 122 121 118 117 115 114 113 112 112 112 111 112
261 210 225 254 46 14 1 55 56 50 121 145 158 193 192 137 154 137 152 191 175 180 186 160 133 108 116 130 141 146 150 154 160 165 162 164 170 172 176 180 183 190 193 191 192 201 198 184 180 182 184 190 194 192 188 191 191 189 189 186 186 186 184 183 180 177 171 168 167 161 153 158 162 153 150 141 133 128 123 123 124 125 126 127 127 124 122 121 120 118 116 116 116 115 113 110 110
238 285 219 302 48 54 24 52 63 22 59 135 139 174 201 124 137 142 199 203 181 192 197 178 178 172 157 152 152 155 160 165 171 175 175 175 178 180 178 182 186 190 194 195 194 202 208 196 186 185 186 190 192 188 186 189 189 190 193 190 188 188 186 187 185 181 177 174 169 161 158 166 171 159 153 144 135 131 126 126 126 127 130 129 128 125 124 123 122 122 122 122 121 119 116 112 112
87 47 126 339 350 54 39 44 50 14 7 97 112 82 152 125 106 150 197 219 205 208 205 190 194 188 170 163 161 162 167 170 178 184 185 185 185 188 185 186 189 190 192 192 194 199 207 204 196 191 188 190 192 189 187 191 188 189 195 195 192 190 187 187 186 184 184 179 169 166 172 177 176 162 154 148 139 136 133 135 133 133 134 132 131 127 124 124 123 128 132 131 128 125 122 118 117
186 128 95 29 3 53 58 48 28 354 1 73 110 122 150 105 98 185 206 231 215 182 163 155 176 178 161 158 158 163 171 173 182 189 192 193 192 193 190 189 189 191 191 189 193 198 201 202 200 198 194 192 194 191 190 195 190 188 195 195 192 193 189 186 188 188 189 185 176 175 179 181 177 166 162 158 149 148 145 143 140 140 141 138 134 130 130 134 137 140 141 137 132 130 126 123 123
290 117 85 40 32 74 67 63 13 342 18 72 109 343 57 84 221 204 208 232 219 98 87 78 60 106 140 148 153 164 178 180 187 194 196 197 196 196 192 189 189 191 190 187 190 196 197 197 199 199 195 195 198 191 190 199 196 192 198 196 192 194 190 188 191 190 192 191 187 183 179 181 179 168 168 169 166 166 158 152 150 147 143 141 140 141 148 151 150 148 145 141 135 132 129 126 126
230 152 94 46 56 82 67 81 53 8 32 38 5 345 3 229 264 47 216 237 238 115 99 96 88 108 131 143 159 173 183 188 195 198 198 199 200 199 195 192 191 194 193 189 190 192 193 193 198 200 195 198 200 191 190 200 199 196 201 200 195 196 192 190 193 190 193 196 193 190 183 183 181 171 170 175 176 174 167 163 158 150 145 151 159 160 160 156 154 152 145 140 136 132 130 128 129
247 128 113 106 80 92 93 101 98 63 49 19 13 323 283 273 351 353 254 245 245 180 118 119 113 120 141 155 168 179 184 192 198 199 200 203 203 201 201 198 192 194 196 192 190 193 196 193 195 198 194 197 199 194 195 201 203 200 202 202 197 197 195 193 194 192 193 196 195 193 188 185 184 177 175 180 181 175 174 171 161 158 163 172 176 169 162 159 156 153 145 139 136 133 130 130 131
288 104 121 135 109 102 114 119 113 114 105 56 28 257 255 25 15 277 241 235 230 203 150 139 134 144 168 171 176 182 186 193 195 197 201 202 202 201 203 203 197 196 197 194 189 192 197 193 193 194 191 193 196 197 197 200 209 210 206 203 199 202 200 195 196 195 195 196 195 195 192 188 188 185 181 183 183 177 178 177 171 176 183 185 183 171 164 164 158 151 145 139 138 136 132 133 133
320 102 107 113 121 123 173 153 130 144 118 129 240 273 236 80 36 262 250 248 213 191 173 153 151 171 189 190 189 189 191 197 196 194 194 195 199 202 203 204 203 200 197 195 193 195 197 195 197 198 195 193 193 197 199 199 209 215 210 205 202 205 203 198 199 198 197 198 197 197 194 191 191 189 186 186 187 183 183 186 186 190 193 191 185 172 167 166 155 146 142 139 138 136 133 135 135
354 108 103 119 138 131 173 177 146 161 122 171 234 305 286 103 154 243 229 274 164 171 182 173 176 192 200 203 200 197 200 201 196 191 188 191 198 202 201 203 203 201 199 198 197 197 198 197 198 198 196 195 194 196 199 200 205 213 213 210 208 207 204 203 203 202 199 199 200 198 194 195 193 190 190 190 191 189 189 195 198 198 197 191 182 176 172 163 153 147 143 140 137 135 134 135 136
75 193 188 154 166 155 184 180 151 170 165 178 123 328 269 197 226 246 209 152 151 169 195 194 191 200 207 208 202 203 206 201 194 192 195 197 199 202 203 204 203 201 202 202 199 199 200 198 198 195 193 197 198 196 198 199 199 206 214 217 218 214 209 208 208 207 204 202 203 201 196 197 198 192 190 193 195 193 193 197 202 202 197 188 182 180 173 162 156 150 144 141 138 136 134 134 136
141 212 272 154 187 197 188 166 133 148 140 152 112 345 269 227 232 242 182 151 159 176 212 215 210 209 207 205 203 207 203 199 198 198 200 200 201 204 206 205 204 204 203 202 200 202 201 201 201 197 195 199 202 200 199 200 199 198 208 221 227 222 215 213 214 214 209 203 204 206 200 199 203 198 192 195 197 196 196 198 202 202 195 188 185 182 174 165 160 152 147 144 140 138 134 134 136
181 147 62 214 230 205 169 143 140 153 202 166 124 210 270 278 251 219 140 152 158 188 224 227 228 223 208 200 204 212 206 202 205 205 201 200 203 205 206 205 205 205 203 202 201 202 202 203 203 201 199 202 207 206 203 205 206 204 206 221 227 223 219 216 217 217 212 205 204 206 202 200 206 205 198 198 201 199 198 199 201 199 193 190 186 183 177 166 161 156 152 147 141 138 136 135 135
196 129 244 213 209 223 154 155 156 152 261 186 147 211 261 271 193 111 112 131 156 209 236 237 236 231 212 199 201 212 217 208 207 207 204 202 203 204 206 207 206 207 205 204 202 200 200 202 202 201 200 202 207 209 208 207 209 211 212 222 230 226 223 222 219 218 214 208 205 206 203 201 205 206 202 202 203 201 198 199 199 196 192 189 185 180 175 167 161 155 152 150 144 141 140 138 136
192 183 239 192 181 190 166 276 267 130 127 187 193 248 274 253 176 152 156 162 178 209 233 238 238 237 222 205 201 210 217 209 204 205 204 204 206 207 208 207 207 208 207 204 202 199 199 202 203 202 202 202 205 208 211 211 212 215 211 218 231 229 225 226 223 217 211 206 205 206 204 203 205 206 205 204 204 202 200 200 198 194 191 188 184 177 173 168 162 155 152 153 149 146 145 142 138
205 187 238 250 188 185 172 300 284 169 172 220 213 229 252 262 261 249 216 192 192 206 225 234 237 239 232 215 210 210 209 209 204 201 202 204 207 208 209 208 207 206 205 203 202 201 200 203 206 206 206 207 208 211 215 217 219 217 209 212 226 225 220 223 226 220 208 200 200 203 203 202 205 207 206 205 207 205 202 201 198 193 190 187 182 176 170 164 161 158 155 155 154 151 149 145 142
202 178 209 269 233 215 227 208 187 178 174 237 227 234 244 253 261 260 244 218 209 220 228 231 235 235 235 229 222 216 211 214 208 201 202 205 206 207 207 206 205 203 201 201 203 203 201 203 208 209 210 211 212 215 218 220 220 215 207 210 218 219 216 217 223 223 215 206 202 205 206 202 202 206 206 205 206 204 200 199 196 191 189 186 179 173 168 165 164 163 160 157 156 154 152 148 144
16 102 118 305 302 233 186 110 183 189 179 233 235 250 255 251 256 262 258 243 234 241 243 238 234 229 232 236 235 229 223 224 214 204 203 205 205 205 204 203 202 200 198 198 200 202 201 202 206 207 208 210 209 210 212 212 211 207 203 208 213 214 218 218 221 225 222 218 214 213 213 208 206 209 210 206 204 202 200 199 195 190 190 186 179 174 171 171 170 168 164 160 156 152 152 150 146
9 12 28 324 331 307 97 104 210 294 298 248 244 262 271 264 256 258 262 264 261 258 257 254 244 234 231 233 238 238 236 235 222 209 204 204 204 202 201 199 196 196 196 196 198 200 201 201 204 206 205 206 206 205 207 207 206 204 201 206 210 212 218 220 221 224 225 224 221 217 215 213 210 210 212 208 204 201 199 198 195 190 189 186 183 181 178 176 173 169 165 163 160 155 152 152 151
20 8 345 316 288 268 276 112 172 51 51 270 277 276 274 271 262 256 251 253 255 251 251 253 249 245 239 234 235 236 238 238 221 208 198 194 195 196 196 195 193 194 196 197 199 199 199 200 203 206 204 204 207 207 208 209 208 207 205 207 210 212 219 222 221 223 223 223 222 218 215 212 211 211 210 208 206 204 200 198 195 191 189 187 185 183 182 178 173 170 166 163 164 161 157 158 157
65 93 312 292 270 283 13 93 146 113 104 263 282 279 272 276 272 261 248 243 247 245 244 247 247 248 246 239 237 233 233 230 211 190 176 177 183 188 191 194 196 197 198 199 200 200 198 199 202 205 204 204 205 207 209 211 211 210 207 206 207 209 217 222 223 222 220 220 220 219 215 213 215 215 210 206 205 203 199 197 195 192 190 188 186 184 182 179 174 174 172 167 164 161 160 163 164
181 179 210 250 218 108 311 211 173 187 197 261 295 288 271 271 271 267 256 242 245 247 246 249 246 245 247 244 241 233 226 220 203 181 164 169 178 184 190 194 196 198 200 200 200 200 198 199 201 203 205 204 203 205 209 211 212 208 202 202 206 208 212 217 219 219 219 219 219 218 216 215 217 215 209 206 203 200 197 198 196 192 191 190 190 186 183 181 178 178 177 173 168 162 163 168 169
217 203 201 229 239 186 218 321 3 236 224 338 312 298 273 248 244 263 270 244 237 241 240 247 247 244 249 253 249 237 229 218 193 181 175 174 182 189 192 194 196 197 200 202 200 200 201 202 204 206 207 205 203 204 206 205 202 196 194 197 202 204 207 209 210 212 213 214 214 214 213 213 213 211 208 207 205 202 200 198 195 192 191 191 192 191 188 185 182 181 181 179 177 172 169 170 171
229 217 209 223 282 336 351 7 7 338 327 325 346 319 296 260 223 250 273 246 227 225 225 236 245 244 243 248 248 239 235 229 202 184 180 184 187 188 191 193 196 200 203 204 204 203 205 205 205 206 207 205 203 204 204 202 199 193 193 194 195 196 200 205 207 208 206 206 207 207 206 206 206 206 206 205 204 203 201 197 194 192 192 192 193 193 190 185 183 184 185 184 183 180 173 172 176
243 258 269 237 350 18 11 1 8 338 293 249 149 170 280 295 257 247 252 248 244 237 231 236 241 238 229 231 236 228 222 222 213 188 171 176 178 176 186 195 198 202 205 205 206 205 206 207 205 206 207 206 204 203 203 203 200 197 197 198 199 199 201 206 209 209 206 204 203 203 202 201 202 202 203 203 202 201 200 197 196 195 195 195 194 193 190 188 187 188 189 188 187 185 178 176 180
233 286 352 57 62 52 39 20 335 263 304 274 172 160 264 279 245 228 228 241 252 251 248 248 243 233 226 226 219 203 195 188 180 178 167 164 171 177 187 196 200 204 204 203 204 204 205 207 207 206 207 207 205 202 202 204 202 201 202 203 206 207 207 208 207 206 206 204 202 201 202 200 199 200 201 201 200 200 199 197 197 197 197 196 196 195 193 192 191 189 189 189 189 189 187 184 183
243 284 19 77 75 56 69 46 309 311 343 306 183 149 256 277 241 202 206 219 231 238 243 246 250 244 231 216 180 155 149 141 143 168 176 160 170 182 190 194 199 202 201 201 203 203 204 206 206 206 206 208 206 204 204 207 206 205 205 207 210 211 211 211 207 204 204 202 200 200 202 200 196 195 197 198 198 199 200 199 198 198 197 197 197 197 197 195 193 191 189 190 192 193 195 192 188
210 181 72 68 68 50 52 25 352 17 330 269 182 161 249 283 257 167 182 203 206 225 233 233 243 237 194 141 124 117 108 113 127 149 159 154 167 179 186 188 192 197 199 200 202 202 202 204 205 204 207 209 209 208 208 208 208 209 210 210 212 210 207 207 205 202 203 202 201 201 202 201 196 194 194 195 197 198 200 200 199 199 199 199 199 197 197 197 195 195 194 194 195 196 197 196 194
158 140 79 62 60 49 37 326 59 50 283 235 174 180 197 289 273 152 175 200 189 199 212 227 240 209 147 126 126 130 127 129 127 124 123 132 152 167 174 179 185 190 194 197 199 201 201 202 204 204 207 211 210 210 211 210 209 210 213 213 212 209 203 201 200 200 202 202 202 203 202 200 199 198 196 195 196 197 198 199 200 201 201 200 199 198 199 199 199 199 197 195 196 198 198 197 199
121 124 112 84 39 31 30 343 60 118 261 260 179 179 178 239 260 178 191 181 177 187 182 209 241 166 138 138 135 138 142 147 141 134 130 126 140 160 170 175 180 185 189 194 197 199 200 202 202 202 205 208 209 210 212 213 211 211 214 214 213 211 206 203 201 200 201 200 201 202 200 199 199 200 199 197 196 196 198 198 199 201 202 201 201 201 201 202 201 200 197 196 197 199 198 195 199
133 148 133 113 82 17 19 245 158 210 248 284 158 153 204 242 248 254 268 244 205 213 198 204 257 330 168 157 153 152 147 151 155 156 158 156 161 172 176 178 180 185 190 194 197 198 200 202 202 202 204 205 208 211 214 215 214 212 212 212 213 212 210 209 206 205 206 205 203 202 201 200 198 199 201 200 199 198 198 199 200 202 203 203 204 203 203 202 201 198 197 197 197 198 197 195 199
183 165 145 145 159 186 228 217 217 237 249 287 44 77 259 271 280 241 253 255 230 215 225 228 216 242 240 188 169 168 164 166 167 168 170 179 186 184 186 185 184 189 193 195 197 199 199 200 202 204 207 207 208 213 216 216 216 215 212 211 211 210 211 211 210 211 212 210 209 207 206 205 204 205 207 207 205 201 201 202 203 204 204 205 205 204 204 203 201 199 198 197 196 196 195 195 197
196 185 158 172 172 182 206 190 208 245 279 293 326 112 218 246 274 225 247 287 242 207 222 229 222 232 234 213 193 177 179 181 171 175 183 190 191 187 190 192 192 194 197 198 199 199 199 200 203 205 207 207 207 211 215 216 217 216 213 212 211 210 211 212 212 214 216 215 213 210 209 210 212 214 216 214 209 203 202 202 203 204 203 204 204 204 204 204 203 200 198 197 195 194 193 193 194
215 199 187 224 212 178 177 194 186 156 337 292 226 234 223 211 264 259 282 305 273 217 228 230 242 256 260 261 242 206 192 187 177 186 194 194 192 190 192 195 198 199 200 201 201 200 201 202 204 207 208 208 208 211 215 219 220 216 213 213 212 210 210 210 209 211 215 216 215 213 214 218 221 221 219 216 210 205 203 203 203 203 202 202 203 202 203 204 203 200 198 196 195 194 195 193 192
189 171 198 220 159 133 166 269 49 97 263 265 202 250 277 306 281 255 238 256 250 216 237 233 234 251 257 262 262 246 210 188 190 196 196 197 192 193 196 197 200 202 202 204 204 204 204 205 206 208 210 211 212 214 218 221 221 216 214 213 212 210 209 208 206 207 211 214 216 219 223 225 224 221 217 213 209 207 206 205 204 203 202 202 202 202 203 203 202 200 198 197 196 196 196 194 193
133 174 200 131 39 54 138 173 359 148 247 263 199 244 274 280 276 270 215 241 243 219 225 231 232 238 243 252 264 263 225 175 191 199 194 199 192 193 199 201 204 205 206 207 207 207 208 208 209 209 210 212 213 216 219 220 220 217 216 215 213 212 210 210 208 209 213 216 219 223 223 222 220 217 214 210 207 206 206 205 205 204 203 204 204 204 204 203 201 199 199 199 198 197 196 194 194
121 176 204 107 100 246 145 158 231 213 238 268 256 261 265 227 240 281 257 232 224 219 216 219 227 227 232 244 256 265 249 171 184 194 191 193 188 194 199 202 207 208 209 211 209 209 210 210 211 211 213 214 214 216 218 218 218 217 219 219 217 215 213 212 211 213 217 220 221 222 219 217 215 213 212 210 208 206 205 205 205 205 205 205 206 206 205 203 201 200 199 198 198 197 195 192 192
50 353 341 97 150 190 170 175 190 179 217 255 276 284 268 218 209 225 233 224 205 210 216 213 218 218 222 233 243 259 256 202 192 192 193 191 185 196 201 203 207 207 208 209 208 209 210 210 211 211 213 215 215 215 215 216 216 217 219 220 219 217 214 213 213 214 218 220 221 220 216 213 211 212 213 213 210 208 206 207 206 205 205 205 205 205 204 203 201 200 200 198 196 196 195 192 189
177 214 214 189 142 125 140 253 190 164 194 234 275 281 262 225 199 205 213 217 199 191 197 208 217 213 212 224 232 241 242 216 196 182 184 185 181 190 200 207 208 208 207 207 208 209 210 211 211 210 211 213 213 213 214 216 216 217 219 219 218 216 215 214 215 216 217 219 219 218 215 213 211 212 214 214 212 210 209 208 206 206 206 205 205 204 203 203 202 200 200 198 196 194 194 192 189
190 193 197 198 181 148 170 249 226 156 185 204 217 275 267 229 168 183 172 174 180 177 180 192 206 209 213 232 232 221 222 208 173 157 165 172 171 176 190 202 206 207 207 207 208 209 210 212 213 212 210 211 212 212 212 215 217 217 218 218 216 215 214 214 214 215 216 216 217 217 217 215 212 212 213 214 214 212 210 209 207 207 206 206 205 204 203 202 201 199 198 196 196 194 192 191 189